DH5DY-6 Weather Reports


time (UTC)temp
C
wind
direction
speed
KPH
gust
KPH
rain 1hr
cm
rain 24hr
cm
rain mn
cm
humidity
%
barometer
mb
20260508184315 13 360 0.0 4.8 0.00 0.00 0.00 73 1016.5
20260508183316 13 360 0.0 6.4 0.00 0.00 0.00 70 1016.4
20260508181315 13 360 6.4 16.1 0.00 0.00 0.00 64 1016.2
20260508180315 13 360 4.8 12.9 0.00 0.00 0.00 63 1016.2
20260508174315 14 360 4.8 11.3 0.00 0.00 0.00 60 1016.1
20260508173315 14 40 6.4 9.7 0.00 0.00 0.00 59 1016.0
20260508171316 15 24 1.6 3.2 0.00 0.00 0.00 62 1015.7
20260508170315 15 22 1.6 4.8 0.00 0.00 0.00 55 1015.8
20260508164315 15 23 3.2 6.4 0.00 0.00 0.00 55 1015.7
20260508163315 16 34 3.2 6.4 0.00 0.00 0.00 51 1015.8
20260508161315 15 360 3.2 9.7 0.00 0.00 0.00 51 1015.8
20260508160314 15 294 3.2 8.0 0.00 0.00 0.00 51 1015.8
20260508154315 15 32 3.2 4.8 0.00 0.00 0.00 52 1015.7
20260508153314 15 9 0.0 6.4 0.00 0.00 0.00 51 1015.9
20260508151314 15 360 1.6 4.8 0.00 0.00 0.00 52 1016.0
20260508150314 15 360 1.6 6.4 0.00 0.00 0.00 55 1016.1
20260508144314 14 360 1.6 4.8 0.00 0.00 0.00 65 1016.2
20260508143316 14 360 0.0 3.2 0.00 0.00 0.00 62 1016.2
20260508141315 14 360 1.6 4.8 0.00 0.00 0.00 63 1016.2
20260508140603 14 360 3.2 8.0 0.00 0.00 0.00 55 1016.3
20260508134314 14 360 1.6 8.0 0.00 0.00 0.00 55 1016.3
20260508133314 15 360 0.0 4.8 0.00 0.00 0.00 59 1016.2
20260508131315 15 360 0.0 4.8 0.00 0.00 0.00 61 1016.2
20260508130314 15 360 3.2 6.4 0.00 0.00 0.00 51 1016.3
20260508124313 15 360 4.8 8.0 0.00 0.00 0.00 52 1016.3
20260508123314 15 360 3.2 8.0 0.00 0.00 0.00 52 1016.4
20260508121313 14 360 3.2 8.0 0.00 0.00 0.00 51 1016.5
20260508120314 15 360 6.4 9.7 0.00 0.00 0.00 52 1016.5
20260508114313 15 347 6.4 14.5 0.00 0.00 0.00 50 1016.3
20260508113314 15 309 0.0 9.7 0.00 0.00 0.00 50 1016.2
20260508111313 15 220 3.2 6.4 0.00 0.00 0.00 52 1016.3
20260508110313 15 204 4.8 8.0 0.00 0.00 0.00 53 1016.3
20260508104314 15 328 4.8 9.7 0.00 0.00 0.00 52 1016.4
20260508103314 14 252 3.2 9.7 0.00 0.00 0.00 54 1016.4
20260508101313 14 240 4.8 9.7 0.00 0.00 0.00 58 1016.6
20260508100313 13 280 4.8 8.0 0.00 0.00 0.00 59 1016.6
20260508094313 13 50 1.6 6.4 0.00 0.00 0.00 63 1016.6
20260508093313 13 93 1.6 11.3 0.00 0.00 0.00 66 1016.7
20260508091313 12 306 3.2 8.0 0.00 0.00 0.00 68 1016.9
20260508090313 12 9 3.2 6.4 0.00 0.00 0.00 73 1016.8
20260508084313 11 76 1.6 6.4 0.00 0.00 0.00 76 1017.0
20260508083313 11 285 3.2 4.8 0.00 0.00 0.00 78 1017.0
20260508081312 10 360 1.6 6.4 0.00 0.00 0.00 81 1017.1
20260508080313 10 194 4.8 9.7 0.00 0.00 0.00 81 1017.1
20260508074313 10 24 4.8 6.4 0.00 0.00 0.00 85 1017.2
20260508073312 9 194 0.0 6.4 0.00 0.00 0.00 87 1017.1
20260508071312 8 110 1.6 3.2 0.00 0.00 0.00 93 1017.2
20260508070312 7 115 1.6 3.2 0.00 0.00 0.00 94 1017.2
20260508064312 6 117 0.0 0.0 0.00 0.00 0.00 94 1017.0
20260508063312 6 360 0.0 0.0 0.00 0.00 0.00 95 1016.9
20260508061312 4 360 0.0 0.0 0.00 0.00 0.00 95 1016.9
20260508060312 3 360 0.0 0.0 0.00 0.00 0.00 95 1016.8
20260508054312 2 360 0.0 0.0 0.00 0.00 0.00 95 1016.7
20260508053311 2 360 0.0 0.0 0.00 0.00 0.00 96 1016.7
20260508051312 1 360 0.0 0.0 0.00 0.00 0.00 96 1016.6
20260508050312 1 360 0.0 0.0 0.00 0.00 0.00 95 1016.5
20260508044311 0 360 0.0 0.0 0.00 0.00 0.00 95 1016.4
20260508043312 0 360 0.0 0.0 0.00 0.00 0.00 95 1016.4
20260508041311 0 360 0.0 0.0 0.00 0.00 0.00 95 1016.3
20260508040312 0 360 0.0 0.0 0.00 0.00 0.00 95 1016.2
20260508034311 0 360 0.0 0.0 0.00 0.00 0.00 94 1016.2
20260508033311 0 360 0.0 0.0 0.00 0.00 0.00 94 1016.2
20260508031312 1 360 0.0 0.0 0.00 0.00 0.00 94 1016.3
20260508030311 1 360 0.0 0.0 0.00 0.00 0.00 94 1016.2
20260508024311 1 360 0.0 0.0 0.00 0.00 0.00 94 1016.3
20260508023311 1 360 0.0 0.0 0.00 0.00 0.00 94 1016.3
20260508021311 1 360 0.0 0.0 0.00 0.00 0.00 94 1016.1
20260508020311 1 360 0.0 0.0 0.00 0.00 0.00 94 1016.0
20260508014311 1 360 0.0 0.0 0.00 0.00 0.00 94 1016.0
20260508013311 1 360 0.0 0.0 0.00 0.00 0.00 94 1016.0
20260508011311 2 360 0.0 0.0 0.00 0.00 0.00 94 1016.0
20260508010310 2 360 0.0 0.0 0.00 0.00 0.00 94 1016.0
20260508004311 2 360 0.0 0.0 0.00 0.00 0.00 94 1016.1
20260508003311 2 360 0.0 0.0 0.00 0.00 0.00 94 1016.1
20260508001311 3 360 0.0 0.0 0.00 0.00 0.00 94 1016.1
20260508000312 3 360 0.0 0.0 0.00 0.00 0.00 94 1016.2
20260507234310 3 360 0.0 0.0 0.00 0.00 0.00 93 1016.4
20260507233310 3 360 0.0 0.0 0.00 0.00 0.00 93 1016.3
20260507231310 3 360 0.0 0.0 0.00 0.00 0.00 93 1016.3
20260507230310 3 360 0.0 0.0 0.00 0.00 0.00 93 1016.3
20260507224310 4 360 0.0 0.0 0.00 0.00 0.00 93 1016.2
20260507223310 4 360 0.0 0.0 0.00 0.00 0.00 93 1016.3
20260507221310 5 360 0.0 0.0 0.00 0.00 0.00 92 1016.1
20260507220310 5 360 0.0 0.0 0.00 0.00 0.00 92 1016.2
20260507214309 5 360 0.0 0.0 0.00 0.00 0.00 92 1015.9
20260507213309 5 360 0.0 0.0 0.00 0.00 0.00 92 1015.9
20260507211852 8 118 3.2 8.0 0.00 0.00 0.00 84 1015.0
20260507210853 8 118 3.2 8.0 0.00 0.00 0.00 84 1015.0
20260507205853 8 118 3.2 8.0 0.00 0.00 0.00 84 1015.0
20260507204853 8 118 3.2 8.0 0.00 0.00 0.00 84 1015.0
20260507203852 8 118 3.2 8.0 0.00 0.00 0.00 84 1015.0
20260507202852 8 118 3.2 8.0 0.00 0.00 0.00 84 1015.0
20260507201852 8 118 3.2 8.0 0.00 0.00 0.00 84 1015.0
20260507200852 8 118 3.2 8.0 0.00 0.00 0.00 84 1015.0
20260507195852 8 118 3.2 8.0 0.00 0.00 0.00 84 1015.0
20260507194852 8 118 3.2 8.0 0.00 0.00 0.00 84 1015.0
20260507193852 8 118 3.2 8.0 0.00 0.00 0.00 84 1015.0
20260507192852 8 118 3.2 8.0 0.00 0.00 0.00 84 1015.0
20260507191852 9 360 1.6 3.2 0.00 0.00 0.00 82 1014.9
20260507190852 10 360 1.6 4.8 0.00 0.00 0.00 80 1014.9
20260507185852 10 360 1.6 6.4 0.00 0.00 0.00 77 1014.8